Weather History for Campo, CA

Change the Weather History Date:

Wednesday, October 24, 2012

  Actual Average Record
Temperature  
Mean Temperature 52 °F 59 °F  
Max Temperature 69 °F 77 °F 95 °F (1959)
Min Temperature 34 °F 41 °F 26 °F (1961)
Degree Days  
Heating Degree Days 13 7  
Month to date heating degree days 101 109  
Since 1 July heating degree days 110 159  
Cooling Degree Days 0 0  
Month to date cooling degree days 33 27  
Year to date cooling degree days 942 838  
Growing Degree Days 2 (Base 50)    
Moisture  
Dew Point 38 °F    
Average Humidity 62    
Maximum Humidity 92    
Minimum Humidity 32    
Precipitation  
Precipitation 0.00 in 0.03 in 0.30 in (1987)
Month to date precipitation 0.34 0.60  
Year to date precipitation 7.81 12.11  
Since 1 July precipitation 1.76 1.96  
Snow  
Snow 0.00 in - - ()
Month to date snowfall 0.0  
Year to date snowfall 0.0  
Since 1 July snowfall 0.0  
Snow Depth 0.00 in    
Sea Level Pressure  
Sea Level Pressure 29.96 in    
Wind  
Wind Speed 6 mph (West)    
Max Wind Speed 17 mph    
Max Gust Speed 29 mph    
T = Trace of Precipitation, MM = Missing Value Source: NWS Daily Summary

Daily Weather History Graph

Daily Weather History Graph

Search for Another Location

Airport:

Trip Planner

Search our weather history database for the weather conditions in past years. The results will help you decide how hot, cold, wet, or windy it might be!

Date:

Astronomy

Oct. 24, 2012 Rise Set
Actual Time 6:57 AM PDT 6:02 PM PDT
Civil Twilight 6:32 AM PDT 6:27 PM PDT
Nautical Twilight 6:03 AM PDT 6:56 PM PDT
Astronomical Twilight 5:34 AM PDT 7:24 PM PDT
Moon 3:07 PM PDT (10/24) 2:12 AM PDT (10/24)
Length of Visible Light 11h 55m
Length of Day
11h 05m
Waxing Gibbous, 77% of the Moon is Illuminated
Oct 24
Waxing Gibbous
Oct 29
Full
Nov 6
Last Quarter
Nov 13
New
Nov 20
First Quarter

Hourly Weather History & Observations

Time (PDT) Temp. Windchill Dew Point Humidity Pressure Visibility Wind Dir Wind Speed Gust Speed Precip Events Conditions
12:52 AM 36.0 °F 32.1 °F 33.1 °F 89% 29.94 in - NE 4.6 mph - N/A   Unknown
1:52 AM 35.1 °F 31.0 °F 30.9 °F 85% 29.93 in - NE 4.6 mph - N/A   Unknown
2:52 AM 36.0 °F - 33.1 °F 89% 29.92 in - Calm Calm - N/A   Unknown
3:52 AM 36.0 °F - 32.0 °F 86% 29.91 in - Calm Calm - N/A   Unknown
4:52 AM 37.0 °F 34.5 °F 33.1 °F 86% 29.91 in - ENE 3.5 mph - N/A   Unknown
5:52 AM 37.9 °F - 34.0 °F 86% 29.94 in - Calm Calm - N/A   Unknown
6:52 AM 43.0 °F - 37.9 °F 82% 29.95 in - Calm Calm - N/A   Unknown
7:52 AM 46.0 °F - 41.0 °F 83% 29.96 in - Calm Calm - N/A   Unknown
8:52 AM 51.1 °F - 44.1 °F 77% 29.98 in - SW 8.1 mph - N/A   Unknown
9:52 AM 55.0 °F - 43.0 °F 64% 30.00 in - West 3.5 mph - N/A   Unknown
10:52 AM 57.9 °F - 42.1 °F 56% 29.99 in - SSW 9.2 mph - N/A   Unknown
11:52 AM 62.1 °F - 39.0 °F 43% 29.97 in - SSW 9.2 mph 17.3 mph N/A   Unknown
12:52 PM 64.9 °F - 37.0 °F 36% 29.95 in - SW 11.5 mph 17.3 mph N/A   Unknown
1:52 PM 66.0 °F - 36.0 °F 33% 29.93 in - West 10.4 mph 20.7 mph N/A   Unknown
2:52 PM 68.0 °F - 37.0 °F 32% 29.91 in - West 11.5 mph 19.6 mph N/A   Unknown
3:52 PM 68.0 °F - 37.0 °F 32% 29.92 in - West 11.5 mph - N/A   Unknown
4:52 PM 66.9 °F - 39.0 °F 36% 29.92 in - West 6.9 mph - N/A   Unknown
5:52 PM 59.0 °F - 46.0 °F 62% 29.96 in - SSW 11.5 mph - N/A   Unknown
6:52 PM 55.9 °F - 46.0 °F 69% 29.97 in - SW 9.2 mph - N/A   Unknown
7:52 PM 52.0 °F - 46.0 °F 80% 29.99 in - Calm Calm - N/A   Unknown
8:52 PM 44.1 °F 40.1 °F 39.9 °F 85% 30.00 in - NNE 6.9 mph - N/A   Unknown
9:52 PM 43.0 °F 39.5 °F 39.0 °F 86% 30.01 in - NE 5.8 mph - N/A   Unknown
10:52 PM 41.0 °F 39.0 °F 37.9 °F 89% 30.01 in - NNE 3.5 mph - N/A   Unknown
11:52 PM 39.0 °F 36.8 °F 36.0 °F 89% 30.01 in - NE 3.5 mph - N/A   Unknown